{"data":{"norad_id":57830,"epoch":"2026-05-25T04:48:06.446304Z","epoch_age_seconds":61775,"freshness":"FRESH","line1":"1 57830U 23139A   26145.20007461  .00000105  00000+0  46573-4 0  9993","line2":"2 57830  85.9899 270.2684 0001833  97.7514 262.3877 14.12442320139450","mean_motion":14.1244232,"eccentricity":0.0001833,"inclination_deg":85.9899,"raan_deg":270.2684,"arg_perigee_deg":97.7514,"mean_anomaly_deg":262.3877,"bstar":4.6573e-5,"rev_number":13945,"period_min":101.95106586724,"perigee_km":849.70105790393,"apogee_km":852.35126911967,"semimajor_km":7229.1631635118,"source":"CELESTRAK","updated_at":"2026-05-25T13:38:00.282039Z"}}